Location: Carri�res
(48.9069°N, 2.1792°E)
Time: 11:36:55
(UTC+00:00)

Cosmos 1892 Rocket - Visible Passes

Search period start: 14 May 2021 00:00
Search period end: 24 May 2021 00:00
Orbit: 605 x 634 km, 82.5° (Epoch: 14 May)

Date Brightness Start Highest point End Pass type
(mag) Time Alt. Az. Time Alt. Az. Time Alt. Az.
14 May 4.9 02:55:17 10° SSE 02:59:18 38° E 03:03:20 10° NNE visible
15 May 3.8 03:12:24 10° S 03:16:43 70° E 03:21:02 10° NNE visible
16 May 6.2 01:54:40 10° ESE 01:56:54 14° E 01:59:08 10° NE visible
17 May 5.6 02:10:41 10° SE 02:14:09 24° E 02:17:37 10° NE visible
18 May 4.7 02:27:25 10° SSE 02:31:28 41° E 02:35:33 10° NNE visible
19 May 3.7 02:44:35 10° S 02:48:54 74° E 02:53:14 10° NNE visible
20 May 6.1 01:26:38 10° ESE 01:29:04 15° E 01:31:29 10° NE visible
20 May 3.6 03:02:08 10° SSW 03:06:24 62° WNW 03:10:44 10° N visible
21 May 5.4 01:42:45 10° SE 01:46:18 25° E 01:49:51 10° NNE visible
21 May 4.4 03:20:04 10° SW 03:24:02 35° WNW 03:28:02 10° N visible
22 May 4.5 01:59:57 12° SSE 02:03:38 44° E 02:07:46 10° NNE visible
23 May 3.6 02:17:32 15° S 02:21:04 79° E 02:25:26 10° NNE visible
